CW5532 Weather Reports


Display with metric or nautical units.
time (UTC)temp
F
wind
direction
speed
MPH
gust
MPH
rain 1hr
in
rain 24hr
in
rain mn
in
humidity
%
barometer
mb
20260507010206 46 263 0.0 0.0 0.00 0.00 0.00 84 1012.4
20260507000706 46 291 0.0 0.0 0.00 0.00 0.00 83 1012.8
20260506223706 49 291 0.0 0.0 0.00 0.01 0.00 82 1012.6
20260506223206 50 291 0.0 0.0 0.00 0.01 0.00 82 1012.5
20260506213205 52 291 0.0 0.0 0.00 0.01 0.01 80 1012.3
20260506210205 53 291 0.0 0.0 0.00 0.01 0.01 79 1011.8
20260506193705 56 292 0.0 0.0 0.00 0.06 0.01 73 1010.7
20260506193205 56 262 0.0 0.0 0.00 0.06 0.01 73 1010.6
20260506190705 58 263 0.0 0.0 0.00 0.06 0.01 66 1010.1
20260506183705 64 254 0.0 0.0 0.00 0.06 0.01 56 1009.4
20260506183206 64 253 0.0 1.0 0.00 0.06 0.01 56 1009.4
20260506180205 68 235 0.0 3.0 0.00 0.18 0.01 46 1008.9
20260506173705 68 261 1.0 9.0 0.00 0.24 0.01 46 1008.8
20260506163205 69 267 6.0 14.0 0.00 0.27 0.01 43 1009.0
20260506160705 69 260 6.0 12.0 0.00 0.27 0.01 46 1009.0
20260506160205 69 214 1.0 16.0 0.00 0.27 0.01 46 1008.9
20260506153704 69 253 4.0 10.0 0.00 0.27 0.01 47 1008.8
20260506130704 68 306 9.0 13.0 0.00 0.27 0.01 49 1010.1
20260506123705 66 302 2.0 15.0 0.00 0.27 0.01 51 1010.3
20260506123205 67 260 6.0 14.0 0.00 0.27 0.01 50 1010.3
20260506120704 66 276 5.0 13.0 0.00 0.27 0.01 52 1010.3
20260506113204 65 319 0.0 16.0 0.00 0.27 0.01 54 1010.4
20260506110705 64 264 2.0 13.0 0.00 0.27 0.01 55 1010.9
20260506100704 61 276 7.0 13.0 0.00 0.27 0.01 65 1011.2
20260506093704 59 275 7.0 13.0 0.00 0.27 0.01 68 1011.4
20260506093204 59 255 6.0 16.0 0.00 0.27 0.01 69 1011.5
20260506083704 55 229 7.0 13.0 0.00 0.27 0.01 78 1011.5
20260506080704 52 209 4.0 10.0 0.00 0.27 0.01 83 1011.5
20260506073204 51 240 3.0 12.0 0.00 0.27 0.01 85 1011.5
20260506070703 50 256 3.0 9.0 0.00 0.27 0.01 84 1011.6
20260506070204 50 251 0.0 10.0 0.00 0.27 0.01 84 1011.5
20260506060704 48 241 0.0 0.0 0.00 0.27 0.01 84 1011.4
20260506060203 48 305 0.0 0.0 0.00 0.27 0.01 84 1011.3
20260506050703 43 86 0.0 0.0 0.00 0.27 0.01 85 1011.0
20260506050204 42 86 0.0 0.0 0.00 0.27 0.01 85 1010.8
20260506043204 45 236 0.0 9.0 0.00 0.28 0.01 85 1010.1
20260506040703 45 110 0.0 0.0 0.00 0.28 0.01 85 1010.0
20260506033703 45 19 0.0 0.0 0.00 0.28 0.01 84 1009.9
20260506033203 45 19 0.0 0.0 0.00 0.28 0.01 85 1009.9
20260506030704 46 279 0.0 0.0 0.00 0.28 0.01 85 1009.8
20260506023204 45 269 0.0 0.0 0.00 0.28 0.01 85 1009.7
20260506020203 45 95 0.0 0.0 0.00 0.28 0.01 84 1009.6